Epoch,demod_status_bits,ebno,lock_status,signal_level,viterbi_ber
1664304395,C;S;V;F,12.0,0x00c000,-39.4,12.20e-2
1664304396,C;S;V;F,11.1,0x00c000,-39.8,17.41e-2
1664304397,C;S;V;F,10.8,0x00c000,-40.2,2.69e-5
1664304398,C;S;V;F,11.9,0x00c000,-39.4,
1664304399,,11.8,0x00c000,-39.6,2.49e-5
1664304400,C;S;V;F,11.8,0x00c000,-39.4,5.74e-6
1664304401,C;S;V;F,12.1,0x00c000,-39.6,5.44e-6
1664304402,C;S;V;F,,0x00c000,-39.7,3.78e-6
1664304403,C;S;V;F,11.7,0x00c000,,6.95e-6
1664304404,C;S;V;F,11.5,0x00c000,-39.9,1.10e-5
1664304405,C;S;V;F,11.8,0x00c000,-39.6,8.16e-6
1664304406,C;S;V;F,11.9,0x00c000,-39.6,4.23e-6
1664304407,C;S;V;F,12.2,0x00c000,-39.6,5.29e-6
1664304408,C;S;V;F,11.8,0x00c000,-39.6,4.68e-6
1664304409,C;S;V;F,11.8,0x00c000,-39.4,3.47e-6
1664304410,C;S;V;F,12.0,0x00c000,-38.8,2.57e-6
1664304411,C;S;V;F,12.7,0x00c000,-39.0,2.42e-6
1664304414,C;S;V;F,12.6,0x00c000,-39.1,1.51e-6
1664304415,C;S;V;F,11.5,0x00c000,-40.2,6.35e-6
1664304416,C;S;V;F,11.8,0x00c000,-39.6,7.86e-6
1664304417,C;S;V;F,12.4,0x00c000,-39.0,3.78e-6
1664304418,C;S;V;F,12.5,0x00c000,-39.2,1.66e-6
1664304419,C;S;V;F,12.6,0x00c000,-38.9,
1664304420,,12.6,0x00c000,-39.1,6.06e-7
1664304421,C;S;V;F,12.5,0x00c000,-39.0,4.54e-7
1664304422,C;S;V;F,12.7,0x00c000,-39.0,1.05e-6
1664304423,C;S;V;F,,0x00c000,-38.8,1.05e-6
1664304424,C;S;V;F,12.8,0x00c000,,6.06e-7
1664304425,C;S;V;F,13.3,0x00c000,-38.7,4.54e-7
1664304426,C;S;V;F,13.3,0x00c000,-38.7,3.03e-7
1664304427,C;S;V;F,13.0,0x00c000,-38.8,1.51e-7
1664304428,C;S;V;F,13.1,0x00c000,-38.7,1.51e-7
1664304429,C;S;V;F,13.1,0x00c000,-38.7,0.00e-0
1664304430,C;S;V;F,13.0,0x00c000,-38.7,1.51e-7
1664304431,C;S;V;F,12.9,0x00c000,-39.0,1.51e-7
1664304432,C;S;V;F,13.3,0x00c000,-38.7,3.03e-7
1664304433,C;S;V;F,13.2,0x00c000,-38.7,
1664304434,,13.5,0x00c000,-38.4,1.51e-7
1664304435,C;S;V;F,13.4,0x00c000,-38.6,0.00e-0
1664304436,C;S;V;F,,0x00c000,,0.00e-0
1664304437,C;S;V;F,13.1,0x00c000,-38.5,0.00e-0
1664304438,C;S;V;F,13.3,0x00c000,-38.5,1.51e-7
1664304439,C;S;V;F,13.4,0x00c000,-38.5,0.00e-0
1664304440,C;S;V;F,13.8,0x00c000,-38.0,0.00e-0
1664304441,C;S;V;F,13.8,0x00c000,-38.8,0.00e-0
1664304442,C;S;V;F,13.1,0x00c000,-38.5,0.00e-0
1664304443,C;S;V;F,13.6,0x00c000,-38.2,0.00e-0
1664304444,C;S;V;F,13.7,0x00c000,-38.3,0.00e-0
1664304445,,13.6,0x00c000,-38.2,
1664304446,C;S;V;F,13.5,0x00c000,-38.4,0.00e-0
1664304447,C;S;V;F,,0x00c000,-38.4,0.00e-0
1664304448,C;S;V;F,13.5,0x00c000,,0.00e-0
1664304449,C;S;V;F,13.8,0x00c000,-38.0,0.00e-0
1664304450,C;S;V;F,13.9,0x00c000,-38.0,0.00e-0
1664304451,C;S;V;F,13.8,0x00c000,-38.2,0.00e-0
1664304452,C;S;V;F,13.8,0x00c000,-38.1,0.00e-0
1664304453,C;S;V;F,14.0,0x00c000,-37.8,0.00e-0
1664304454,C;S;V;F,14.3,0x00c000,-37.9,0.00e-0
1664304455,C;S;V;F,13.8,0x00c000,-38.0,0.00e-0
1664304456,C;S;V;F,14.2,0x00c000,-37.9,0.00e-0
1664304457,C;S;V;F,14.4,0x00c000,-37.6,
1664304458,,14.3,0x00c000,-37.7,0.00e-0
1664304459,C;S;V;F,14.0,0x00c000,-38.0,0.00e-0
1664304460,C;S;V;F,,0x00c000,-37.7,0.00e-0
1664304461,C;S;V;F,14.2,0x00c000,-37.9,0.00e-0
1664304462,C;S;V;F,14.1,0x00c000,,0.00e-0
1664304463,C;S;V;F,14.4,0x00c000,-37.6,0.00e-0
1664304464,C;S;V;F,14.4,0x00c000,-37.7,0.00e-0
1664304465,C;S;V;F,14.4,0x00c000,-37.8,0.00e-0
1664304466,C;S;V;F,14.1,0x00c000,-37.5,0.00e-0
1664304467,C;S;V;F,14.6,0x00c000,-37.7,0.00e-0
1664304468,C;S;V;F,14.5,0x00c000,-37.6,0.00e-0
1664304469,C;S;V;F,14.6,0x00c000,-37.3,0.00e-0
1664304470,C;S;V;F,14.6,0x00c000,-37.6,0.00e-0
1664304471,C;S;V;F,14.8,0x00c000,-37.3,0.00e-0
1664304472,C;S;V;F,15.0,0x00c000,-37.2,
1664304473,,14.7,0x00c000,-37.4,0.00e-0
1664304474,C;S;V;F,,,,0.00e-0
1664304475,,,0x00c000,-37.2,
1664304476,C;S;V;F,14.8,0x00c000,,0.00e-0
1664304477,C;S;V;F,15.1,0x00c000,-36.8,0.00e-0
1664304478,C;S;V;F,14.8,0x00c000,-37.4,0.00e-0
1664304479,C;S;V;F,14.7,0x00c000,-37.2,0.00e-0
1664304480,C;S;V;F,15.0,0x00c000,-36.9,0.00e-0
1664304481,C;S;V;F,15.0,0x00c000,-37.1,
1664304482,,15.2,0x00c000,-36.7,0.00e-0
1664304483,C;S;V;F,15.1,0x00c000,-37.1,0.00e-0
1664304484,C;S;V;F,,0x00c000,-37.2,0.00e-0
1664304485,C;S;V;F,15.1,0x00c000,-37.1,0.00e-0
1664304486,C;S;V;F,15.1,0x00c000,,0.00e-0
1664304487,C;S;V;F,15.3,0x00c000,-36.8,0.00e-0
1664304488,C;S;V;F,15.2,0x00c000,-36.8,0.00e-0
1664304489,C;S;V;F,15.4,0x00c000,-36.9,0.00e-0
1664304490,C;S;V;F,15.2,0x00c000,-36.9,0.00e-0
1664304491,C;S;V;F,15.1,0x00c000,-36.7,0.00e-0
1664304492,C;S;V;F,15.5,0x00c000,-36.8,
1664304493,,15.5,0x00c000,-36.7,0.00e-0
1664304494,C;S;V;F,15.4,0x00c000,-36.7,0.00e-0
1664304495,C;S;V;F,15.2,0x00c000,-36.9,0.00e-0
1664304496,C;S;V;F,,0x00c000,-36.7,0.00e-0
1664304497,C;S;V;F,15.3,0x00c000,,0.00e-0
1664304498,C;S;V;F,15.6,0x00c000,-36.7,0.00e-0
1664304499,C;S;V;F,15.6,0x00c000,-36.7,0.00e-0
1664304500,C;S;V;F,15.6,0x00c000,-36.5,0.00e-0
1664304501,C;S;V;F,15.5,0x00c000,-36.4,0.00e-0
1664304502,C;S;V;F,15.4,0x00c000,-36.4,0.00e-0
1664304503,C;S;V;F,15.8,0x00c000,-36.5,0.00e-0
1664304504,C;S;V;F,15.8,0x00c000,-36.4,0.00e-0
1664304505,,15.8,0x00c000,-36.3,
1664304506,C;S;V;F,15.9,0x00c000,-36.4,0.00e-0
1664304507,C;S;V;F,16.1,0x00c000,-36.4,0.00e-0
1664304508,C;S;V;F,,0x00c000,-36.4,0.00e-0
1664304509,C;S;V;F,15.7,0x00c000,-36.2,0.00e-0
1664304510,C;S;V;F,15.9,0x00c000,,0.00e-0
1664304511,C;S;V;F,15.7,0x00c000,-36.1,0.00e-0
1664304512,C;S;V;F,15.9,0x00c000,-36.2,0.00e-0
1664304513,C;S;V;F,16.2,0x00c000,-36.0,0.00e-0
1664304514,C;S;V;F,16.2,0x00c000,-36.0,0.00e-0
1664304515,C;S;V;F,16.1,0x00c000,-35.8,0.00e-0
1664304516,C;S;V;F,16.3,0x00c000,-35.9,0.00e-0
1664304517,C;S;V;F,16.2,0x00c000,-35.8,0.00e-0
1664304518,C;S;V;F,16.4,0x00c000,-35.7,
1664304519,,16.3,0x00c000,-35.7,0.00e-0
1664304520,C;S;V;F,,0x00c000,-35.6,0.00e-0
1664304521,C;S;V;F,16.4,0x00c000,,0.00e-0
1664304522,C;S;V;F,16.5,0x00c000,-35.5,0.00e-0
1664304523,C;S;V;F,16.6,0x00c000,-35.6,0.00e-0
1664304524,C;S;V;F,16.5,0x00c000,-35.5,0.00e-0
1664304525,C;S;V;F,16.6,0x00c000,-35.4,0.00e-0
1664304526,C;S;V;F,16.5,0x00c000,-35.7,0.00e-0
1664304527,C;S;V;F,16.7,0x00c000,-35.5,0.00e-0
1664304528,C;S;V;F,16.5,0x00c000,-35.4,0.00e-0
1664304529,C;S;V;F,16.8,0x00c000,-35.3,0.00e-0
1664304530,C;S;V;F,16.7,0x00c000,-35.2,
1664304531,,16.9,0x00c000,-35.3,0.00e-0
1664304532,C;S;V;F,16.8,0x00c000,-35.2,0.00e-0
1664304533,C;S;V;F,,0x00c000,-35.2,0.00e-0
1664304534,C;S;V;F,16.8,0x00c000,,0.00e-0
1664304535,C;S;V;F,17.0,0x00c000,-35.1,0.00e-0
1664304536,C;S;V;F,17.2,0x00c000,-34.9,0.00e-0
1664304537,C;S;V;F,17.2,0x00c000,-35.1,0.00e-0
1664304539,,17.1,0x00c000,-34.8,
1664304540,C;S;V;F,17.3,0x00c000,-34.9,0.00e-0
1664304541,C;S;V;F,,0x00c000,-34.8,0.00e-0
1664304542,C;S;V;F,17.1,0x00c000,,0.00e-0
1664304543,C;S;V;F,17.2,0x00c000,-34.8,0.00e-0
1664304544,C;S;V;F,17.1,0x00c000,-34.8,0.00e-0
1664304545,C;S;V;F,17.2,0x00c000,-34.8,0.00e-0
1664304546,C;S;V;F,17.4,0x00c000,-34.7,0.00e-0
1664304547,C;S;V;F,17.4,0x00c000,-34.8,0.00e-0
1664304548,C;S;V;F,17.1,0x00c000,-34.9,0.00e-0
1664304549,C;S;V;F,17.2,0x00c000,-34.7,0.00e-0
1664304550,C;S;V;F,17.6,0x00c000,-34.8,
1664304551,,17.5,0x00c000,-34.7,0.00e-0
1664304552,C;S;V;F,17.5,0x00c000,-34.6,0.00e-0
1664304553,C;S;V;F,17.5,0x00c000,-34.7,0.00e-0
1664304554,C;S;V;F,,0x00c000,,0.00e-0
1664304555,C;S;V;F,17.5,0x00c000,-34.7,0.00e-0
1664304556,C;S;V;F,17.5,0x00c000,-34.7,0.00e-0
1664304557,C;S;V;F,17.4,0x00c000,-34.7,0.00e-0
1664304558,C;S;V;F,17.5,0x00c000,-34.7,0.00e-0
1664304559,C;S;V;F,17.5,0x00c000,-34.7,0.00e-0
1664304560,C;S;V;F,17.5,0x00c000,-34.7,0.00e-0
1664304561,C;S;V;F,17.7,0x00c000,-34.7,0.00e-0
1664304562,C;S;V;F,17.5,0x00c000,-34.7,
1664304563,,17.3,0x00c000,-34.7,0.00e-0
1664304564,C;S;V;F,17.3,0x00c000,-34.7,0.00e-0
1664304565,C;S;V;F,17.5,0x00c000,-34.6,0.00e-0
1664304566,C;S;V;F,,0x00c000,-34.7,0.00e-0
1664304567,C;S;V;F,17.1,0x00c000,,0.00e-0
1664304568,C;S;V;F,17.5,0x00c000,-34.6,0.00e-0
1664304569,C;S;V;F,17.3,0x00c000,-34.7,0.00e-0
1664304570,C;S;V;F,17.4,0x00c000,-34.6,0.00e-0
1664304571,C;S;V;F,17.3,0x00c000,-34.8,0.00e-0
1664304572,C;S;V;F,17.1,0x00c000,-34.6,0.00e-0
1664304573,C;S;V;F,17.5,0x00c000,-34.6,0.00e-0
1664304574,C;S;V;F,17.5,0x00c000,-34.7,0.00e-0
1664304575,C;S;V;F,17.3,0x00c000,-34.7,0.00e-0
1664304576,,17.4,0x00c000,-34.6,
1664304577,C;S;V;F,17.5,0x00c000,-34.7,0.00e-0
1664304578,C;S;V;F,17.5,0x00c000,-34.7,0.00e-0
1664304579,C;S;V;F,,0x00c000,-34.8,0.00e-0
1664304580,C;S;V;F,17.4,0x00c000,,0.00e-0
1664304581,C;S;V;F,17.4,0x00c000,-34.8,0.00e-0
1664304582,C;S;V;F,17.1,0x00c000,-34.8,0.00e-0
1664304583,C;S;V;F,17.3,0x00c000,-34.8,0.00e-0
1664304584,C;S;V;F,17.2,0x00c000,-35.1,0.00e-0
1664304585,C;S;V;F,17.1,0x00c000,-35.0,0.00e-0
1664304586,C;S;V;F,17.2,0x00c000,-35.1,
1664304587,,17.2,0x00c000,-35.2,0.00e-0
1664304588,C;S;V;F,16.8,0x00c000,-35.4,0.00e-0
1664304589,C;S;V;F,,0x00c000,-35.6,0.00e-0
1664304590,C;S;V;F,16.9,0x00c000,-35.3,0.00e-0
1664304591,C;S;V;F,16.7,0x00c000,,0.00e-0
1664304592,C;S;V;F,16.8,0x00c000,-35.6,0.00e-0
1664304593,C;S;V;F,16.4,0x00c000,-35.9,0.00e-0
1664304594,C;S;V;F,16.4,0x00c000,-35.9,0.00e-0
1664304595,C;S;V;F,16.4,0x00c000,-36.3,
1664304596,,16.1,0x00c000,-36.2,0.00e-0
1664304597,C;S;V;F,15.9,0x00c000,-36.6,0.00e-0
1664304598,C;S;V;F,15.8,0x00c000,-36.7,0.00e-0
1664304599,C;S;V;F,,0x00c000,,0.00e-0
1664304600,C;S;V;F,15.5,0x00c000,-37.1,0.00e-0
1664304602,C;S;V;F,15.3,0x00c000,-37.6,0.00e-0
1664304603,C;S;V;F,15.1,0x00c000,-37.9,0.00e-0
1664304604,,14.7,0x00c000,-38.0,
1664304605,C;S;V;F,14.5,0x00c000,-38.2,0.00e-0
1664304606,C;S;V;F,,0x00c000,-38.4,0.00e-0
1664304607,C;S;V;F,14.2,0x00c000,-38.3,0.00e-0
1664304608,C;S;V;F,14.3,0x00c000,,0.00e-0
1664304609,C;S;V;F,14.4,0x00c000,-38.5,0.00e-0
1664304610,C;S;V;F,14.1,0x00c000,-38.6,0.00e-0
1664304611,C;S;V;F,14.1,0x00c000,-38.5,0.00e-0
1664304612,C;S;V;F,14.3,0x00c000,-38.5,0.00e-0
1664304613,C;S;V;F,14.2,0x00c000,-38.5,0.00e-0
1664304614,C;S;V;F,14.5,0x00c000,-38.4,0.00e-0
1664304615,C;S;V;F,14.3,0x00c000,-38.4,0.00e-0
1664304616,C;S;V;F,14.4,0x00c000,-38.3,0.00e-0
1664304617,C;S;V;F,14.3,0x00c000,-38.2,
1664304618,,14.2,0x00c000,-38.4,0.00e-0
1664304619,C;S;V;F,14.2,0x00c000,-38.3,0.00e-0
1664304620,C;S;V;F,,0x00c000,-38.4,0.00e-0
1664304621,C;S;V;F,14.2,0x00c000,,0.00e-0
1664304624,,,0x00c000,-37.5,
1664304625,C;S;V;F,15.0,0x00c000,,0.00e-0
1664304626,C;S;V;F,15.5,0x00c000,-37.1,0.00e-0
1664304627,C;S;V;F,16.0,0x00c000,-36.7,0.00e-0
1664304628,C;S;V;F,16.2,0x00c000,-36.4,0.00e-0
1664304629,C;S;V;F,16.7,0x00c000,-36.0,0.00e-0
1664304630,C;S;V;F,16.7,0x00c000,-35.7,0.00e-0
1664304631,C;S;V;F,17.2,0x00c000,-35.6,0.00e-0
1664304632,C;S;V;F,17.2,0x00c000,-35.2,0.00e-0
1664304633,C;S;V;F,17.2,0x00c000,-35.0,
1664304634,,17.3,0x00c000,-34.8,0.00e-0
1664304635,C;S;V;F,17.2,0x00c000,-34.9,0.00e-0
1664304636,C;S;V;F,17.2,0x00c000,-35.0,0.00e-0
1664304637,C;S;V;F,,0x00c000,-34.8,0.00e-0
1664304638,C;S;V;F,17.3,0x00c000,,0.00e-0
1664304639,C;S;V;F,17.5,0x00c000,-34.7,0.00e-0
1664304640,C;S;V;F,17.8,0x00c000,-34.3,0.00e-0
1664304641,C;S;V;F,17.9,0x00c000,-34.1,0.00e-0
1664304642,C;S;V;F,18.1,0x00c000,-33.8,0.00e-0
1664304643,C;S;V;F,18.3,0x00c000,-33.5,0.00e-0
1664304644,C;S;V;F,18.1,0x00c000,-33.3,0.00e-0
1664304645,C;S;V;F,18.3,0x00c000,-33.2,0.00e-0
1664304646,C;S;V;F,18.3,0x00c000,-33.5,
1664304647,C;S;V;F,18.4,0x00c000,-33.5,0.00e-0
1664304648,,18.2,0x00c000,-33.7,0.00e-0
1664304649,C;S;V;F,18.2,0x00c000,-33.9,0.00e-0
1664304650,C;S;V;F,18.2,0x00c000,-33.8,0.00e-0
1664304651,C;S;V;F,,0x00c000,-33.7,0.00e-0
1664304652,C;S;V;F,18.1,0x00c000,-33.6,0.00e-0
1664304653,C;S;V;F,18.0,0x00c000,-33.5,0.00e-0
1664304654,C;S;V;F,18.3,0x00c000,,0.00e-0
1664304655,C;S;V;F,18.4,0x00c000,-33.2,0.00e-0
1664304656,C;S;V;F,18.5,0x00c000,-33.2,0.00e-0
1664304657,C;S;V;F,18.6,0x00c000,-33.1,0.00e-0
1664304658,C;S;V;F,18.4,0x00c000,-33.2,0.00e-0
1664304659,C;S;V;F,18.4,0x00c000,-33.3,0.00e-0
1664304660,C;S;V;F,18.1,0x00c000,-33.8,0.00e-0
1664304661,C;S;V;F,17.9,0x00c000,-34.0,
1664304662,,17.6,0x00c000,-34.3,0.00e-0
1664304663,C;S;V;F,,,,0.00e-0
1664304664,,,0x00c000,-34.4,
1664304665,C;S;V;F,17.7,0x00c000,,0.00e-0
1664304666,C;S;V;F,17.9,0x00c000,-34.4,0.00e-0
1664304667,C;S;V;F,17.6,0x00c000,-34.8,0.00e-0
1664304668,C;S;V;F,17.4,0x00c000,-35.0,0.00e-0
1664304669,,16.9,0x00c000,-35.6,
1664304670,C;S;V;F,16.4,0x00c000,-35.8,0.00e-0
1664304671,C;S;V;F,,0x00c000,-36.3,0.00e-0
1664304672,C;S;V;F,16.4,0x00c000,,0.00e-0
1664304673,C;S;V;F,16.0,0x00c000,-36.6,0.00e-0
1664304674,C;S;V;F,16.1,0x00c000,-36.5,0.00e-0
1664304675,C;S;V;F,15.8,0x00c000,-36.5,0.00e-0
1664304676,C;S;V;F,15.7,0x00c000,-36.8,0.00e-0
1664304677,C;S;V;F,15.6,0x00c000,-37.1,
1664304678,,15.5,0x00c000,-37.2,0.00e-0
1664304679,C;S;V;F,15.0,0x00c000,-37.7,0.00e-0
1664304680,C;S;V;F,,0x00c000,-38.1,0.00e-0
1664304681,C;S;V;F,14.6,0x00c000,,0.00e-0
1664304682,C;S;V;F,14.6,0x00c000,-38.5,0.00e-0
1664304683,C;S;V;F,14.2,0x00c000,-38.6,0.00e-0
1664304684,C;S;V;F,14.1,0x00c000,-38.8,0.00e-0
1664304685,C;S;V;F,14.5,0x00c000,-38.5,0.00e-0
1664304686,C;S;V;F,14.8,0x00c000,-38.0,0.00e-0
1664304687,C;S;V;F,15.4,0x00c000,-37.6,0.00e-0
1664304688,C;S;V;F,15.8,0x00c000,-37.1,0.00e-0
1664304689,C;S;V;F,16.4,0x00c000,-36.2,0.00e-0
1664304690,C;S;V;F,17.3,0x00c000,-35.5,0.00e-0
1664304691,C;S;V;F,17.7,0x00c000,-34.4,
1664304692,,18.2,0x00c000,-33.9,0.00e-0
1664304693,C;S;V;F,18.5,0x00c000,-33.1,0.00e-0
1664304694,C;S;V;F,18.5,0x00c000,-33.2,0.00e-0
1664304695,C;S;V;F,,0x00c000,-33.1,0.00e-0
1664304696,C;S;V;F,18.6,0x00c000,,0.00e-0
1664304697,C;S;V;F,18.5,0x00c000,-33.4,0.00e-0
1664304698,C;S;V;F,18.4,0x00c000,-33.5,0.00e-0
1664304699,C;S;V;F,18.3,0x00c000,-33.2,0.00e-0
1664304700,C;S;V;F,17.9,0x00c000,-33.3,
1664304701,,18.2,0x00c000,-33.2,0.00e-0
1664304702,C;S;V;F,18.1,0x00c000,-33.5,0.00e-0
1664304703,C;S;V;F,17.8,0x00c000,-33.8,0.00e-0
1664304704,C;S;V;F,17.7,0x00c000,-34.0,0.00e-0
1664304705,C;S;V;F,,0x00c000,,0.00e-0
1664304706,C;S;V;F,17.5,0x00c000,-34.8,0.00e-0
1664304707,C;S;V;F,17.3,0x00c000,-35.2,0.00e-0
1664304708,C;S;V;F,16.8,0x00c000,-35.3,0.00e-0
1664304709,C;S;V;F,16.9,0x00c000,-35.4,0.00e-0
1664304710,C;S;V;F,17.1,0x00c000,-34.9,0.00e-0
1664304711,C;S;V;F,17.1,0x00c000,-34.7,0.00e-0
1664304712,C;S;V;F,17.6,0x00c000,-34.3,0.00e-0
1664304713,C;S;V;F,18.3,0x00c000,-33.6,0.00e-0
1664304714,C;S;V;F,18.4,0x00c000,-32.7,
1664304715,C;S;V;F,19.0,0x00c000,-32.4,0.00e-0
1664304716,,18.9,0x00c000,-32.0,0.00e-0
1664304717,C;S;V;F,19.3,0x00c000,-32.0,0.00e-0
1664304718,C;S;V;F,19.1,0x00c000,-31.6,0.00e-0
1664304719,C;S;V;F,,0x00c000,-31.7,0.00e-0
1664304720,C;S;V;F,19.2,0x00c000,,0.00e-0
1664304721,C;S;V;F,19.1,0x00c000,-32.3,0.00e-0
1664304722,C;S;V;F,18.9,0x00c000,-32.9,0.00e-0
1664304723,C;S;V;F,18.6,0x00c000,-33.2,0.00e-0
1664304724,C;S;V;F,18.1,0x00c000,-33.8,0.00e-0
1664304725,C;S;V;F,17.7,0x00c000,-35.0,0.00e-0
1664304727,,16.3,0x00c000,-36.4,
1664304728,C;S;V;F,16.1,0x00c000,-36.0,0.00e-0
1664304729,C;S;V;F,16.8,0x00c000,-35.6,0.00e-0
1664304730,C;S;V;F,16.8,0x00c000,-35.6,0.00e-0
1664304731,C;S;V;F,,0x00c000,-36.1,0.00e-0
1664304732,C;S;V;F,16.4,0x00c000,,0.00e-0
1664304733,C;S;V;F,16.1,0x00c000,-36.4,0.00e-0
1664304734,C;S;V;F,16.4,0x00c000,-35.8,0.00e-0
1664304735,C;S;V;F,16.9,0x00c000,-35.4,0.00e-0
1664304736,C;S;V;F,17.6,0x00c000,-34.4,0.00e-0
1664304737,C;S;V;F,17.6,0x00c000,-34.0,0.00e-0
1664304738,C;S;V;F,17.7,0x00c000,-34.6,
1664304739,,17.4,0x00c000,-35.1,0.00e-0
1664304740,C;S;V;F,17.0,0x00c000,-35.9,0.00e-0
1664304741,C;S;V;F,16.6,0x00c000,-36.0,0.00e-0
1664304742,C;S;V;F,,0x00c000,-35.8,0.00e-0
1664304743,C;S;V;F,16.5,0x00c000,-36.5,0.00e-0
1664304744,C;S;V;F,15.8,0x00c000,,0.00e-0
1664304745,C;S;V;F,15.1,0x00c000,-37.7,0.00e-0
1664304746,C;S;V;F,15.2,0x00c000,-37.6,0.00e-0
1664304747,C;S;V;F,15.9,0x00c000,-37.1,0.00e-0
1664304748,C;S;V;F,16.4,0x00c000,-36.1,0.00e-0
1664304749,C;S;V;F,16.6,0x00c000,-35.5,0.00e-0
1664304750,C;S;V;F,17.0,0x00c000,-35.3,0.00e-0
1664304751,C;S;V;F,16.4,0x00c000,-35.9,0.00e-0
1664304752,C;S;V;F,16.1,0x00c000,-36.3,0.00e-0
1664304753,,16.3,0x00c000,-36.1,
1664304754,C;S;V;F,16.8,0x00c000,-35.5,0.00e-0
1664304755,C;S;V;F,17.0,0x00c000,-34.8,0.00e-0
1664304756,C;S;V;F,,0x00c000,,0.00e-0
1664304757,C;S;V;F,17.8,0x00c000,-34.5,0.00e-0
1664304758,C;S;V;F,17.8,0x00c000,-34.2,0.00e-0
1664304759,C;S;V;F,17.3,0x00c000,-34.8,0.00e-0
1664304760,C;S;V;F,16.3,0x00c000,-36.5,0.00e-0
1664304761,C;S;V;F,15.0,0x00c000,-37.7,0.00e-0
1664304762,C;S;V;F,14.8,0x00c000,-37.9,0.00e-0
1664304763,C;S;V;F,15.0,0x00c000,-37.2,
1664304764,,15.9,0x00c000,-36.3,0.00e-0
1664304765,C;S;V;F,16.7,0x00c000,-35.1,0.00e-0
1664304766,C;S;V;F,17.4,0x00c000,-34.5,0.00e-0
1664304767,C;S;V;F,,0x00c000,-33.9,0.00e-0
1664304768,C;S;V;F,17.7,0x00c000,,0.00e-0
1664304769,C;S;V;F,18.2,0x00c000,-32.9,0.00e-0
1664304770,C;S;V;F,18.6,0x00c000,-32.3,0.00e-0
1664304771,C;S;V;F,18.7,0x00c000,-32.4,0.00e-0
1664304772,C;S;V;F,18.4,0x00c000,-33.0,0.00e-0
1664304773,C;S;V;F,18.2,0x00c000,-33.3,0.00e-0
1664304774,C;S;V;F,18.3,0x00c000,-33.4,0.00e-0
1664304775,C;S;V;F,18.4,0x00c000,-33.3,0.00e-0
1664304776,C;S;V;F,18.0,0x00c000,-33.8,0.00e-0
1664304777,C;S;V;F,17.8,0x00c000,-34.1,0.00e-0
1664304778,C;S;V;F,17.5,0x00c000,-34.8,
1664304779,,16.9,0x00c000,-35.8,0.00e-0
1664304780,C;S;V;F,16.2,0x00c000,-36.3,0.00e-0
1664304781,C;S;V;F,,0x00c000,-37.1,0.00e-0
1664304782,C;S;V;F,15.7,0x00c000,-37.3,0.00e-0
1664304783,C;S;V;F,15.3,0x00c000,,0.00e-0
1664304784,C;S;V;F,14.8,0x00c000,-38.1,0.00e-0
1664304785,C;S;V;F,14.1,0x00c000,-39.2,0.00e-0
1664304786,C;S;V;F,13.1,0x00c000,-39.6,1.51e-7
1664304787,C;S;V;F,13.3,0x00c000,-39.5,3.03e-7
1664304789,C;S;V;F,15.3,0x00c000,-35.3,0.00e-0
1664304790,,18.0,0x00c000,-33.9,
1664304791,C;S;V;F,18.0,0x00c000,-33.9,0.00e-0
1664304792,C;S;V;F,17.9,0x00c000,-34.1,0.00e-0
1664304793,C;S;V;F,17.8,0x00c000,-34.2,0.00e-0
1664304794,C;S;V;F,,0x00c000,-34.4,0.00e-0
1664304795,C;S;V;F,17.6,0x00c000,,0.00e-0
1664304796,C;S;V;F,16.9,0x00c000,-35.7,0.00e-0
1664304797,C;S;V;F,15.4,0x00c000,-37.9,0.00e-0
1664304798,C;S;V;F,13.7,0x00c000,-39.6,0.00e-0
1664304799,C;S;V;F,12.5,0x00c000,-41.0,3.32e-6
1664304800,C;S;V;F,10.6,0x00c000,-41.7,3.31e-5
1664304801,C;S;V;F,11.2,0x00c000,-40.0,2.98e-5
1664304802,C;S;V;F,12.7,0x00c000,-39.4,3.32e-6
1664304803,C;S;V;F,12.6,0x00c000,-39.5,
1664304804,,10.6,0x00c000,-41.6,1.51e-7
1664304805,C;S;V;F,10.5,0x00c000,-41.6,5.89e-6
1664304806,C;S;V;F,13.6,0x00c000,-39.2,5.25e-5
1664304807,C;S;V;F,16.1,0x00c000,-36.3,4.37e-5
1664304808,C;S;V;F,,0x00c000,-36.2,6.06e-7
1664304809,C;S;V;F,16.3,0x00c000,-36.0,0.00e-0
1664304810,C;S;V;F,16.3,0x00c000,,0.00e-0
1664304811,C;S;V;F,17.0,0x00c000,-35.4,0.00e-0
1664304812,C;S;V;F,17.2,0x00c000,-34.9,0.00e-0
1664304813,C;S;V;F,17.3,0x00c000,-35.2,0.00e-0
1664304814,C;S;V;F,16.9,0x00c000,-36.2,0.00e-0
1664304815,C;S;V;F,16.0,0x00c000,-36.9,0.00e-0
1664304816,C;S;V;F,15.8,0x00c000,-36.4,
1664304817,,15.9,0x00c000,-36.9,0.00e-0
1664304818,C;S;V;F,14.4,0x00c000,-38.5,0.00e-0
1664304819,C;S;V;F,,0x00c000,-39.3,0.00e-0
1664304820,C;S;V;F,13.4,0x00c000,,0.00e-0
1664304821,C;S;V;F,14.1,0x00c000,-38.0,0.00e-0
1664304822,C;S;V;F,15.2,0x00c000,-36.9,0.00e-0
1664304823,C;S;V;F,16.0,0x00c000,-36.4,0.00e-0
1664304824,C;S;V;F,15.7,0x00c000,-37.1,0.00e-0
1664304825,C;S;V;F,15.2,0x00c000,-37.2,0.00e-0
1664304826,C;S;V;F,15.9,0x00c000,-36.1,0.00e-0
1664304827,C;S;V;F,17.1,0x00c000,-34.3,0.00e-0
1664304828,C;S;V;F,18.1,0x00c000,-33.2,
1664304829,,18.4,0x00c000,-33.3,0.00e-0
1664304830,C;S;V;F,18.2,0x00c000,-33.6,0.00e-0
1664304831,C;S;V;F,18.3,0x00c000,-33.5,0.00e-0
1664304832,C;S;V;F,18.1,0x00c000,-33.7,0.00e-0
1664304833,C;S;V;F,,0x00c000,-33.7,0.00e-0
1664304834,C;S;V;F,18.2,0x00c000,,0.00e-0
1664304835,C;S;V;F,18.0,0x00c000,-34.3,0.00e-0
1664304836,C;S;V;F,17.0,0x00c000,-35.9,0.00e-0
1664304837,C;S;V;F,15.5,0x00c000,-37.2,0.00e-0
1664304838,C;S;V;F,15.7,0x00c000,-36.8,0.00e-0
1664304839,C;S;V;F,16.4,0x00c000,-36.2,0.00e-0
1664304840,C;S;V;F,16.4,0x00c000,-36.1,0.00e-0
1664304841,C;S;V;F,16.1,0x00c000,-37.1,0.00e-0
1664304842,C;S;V;F,15.3,0x00c000,-37.6,0.00e-0
1664304843,C;S;V;F,14.8,0x00c000,-38.0,0.00e-0
1664304844,,14.8,0x00c000,-37.9,
1664304845,C;S;V;F,15.2,0x00c000,-37.1,0.00e-0
1664304846,C;S;V;F,17.4,0x00c000,-35.0,0.00e-0
1664304847,C;S;V;F,,0x00c000,-33.8,0.00e-0
1664304848,C;S;V;F,18.0,0x00c000,,0.00e-0
1664304849,C;S;V;F,18.2,0x00c000,-33.8,0.00e-0
1664304850,C;S;V;F,17.9,0x00c000,-34.0,0.00e-0
1664304852,C;S;V;F,18.4,0x00c000,-33.3,0.00e-0
1664304853,C;S;V;F,18.0,0x00c000,-33.7,0.00e-0
1664304854,C;S;V;F,17.8,0x00c000,-34.1,0.00e-0
1664304855,C;S;V;F,17.6,0x00c000,-34.4,0.00e-0
1664304856,C;S;V;F,17.4,0x00c000,-34.6,
1664304857,,17.3,0x00c000,-34.9,0.00e-0
1664304858,C;S;V;F,16.7,0x00c000,-35.7,0.00e-0
1664304859,C;S;V;F,,0x00c000,-37.5,0.00e-0
1664304860,C;S;V;F,15.9,0x00c000,,0.00e-0
1664304861,C;S;V;F,13.5,0x00c000,-39.1,0.00e-0
1664304862,C;S;V;F,12.3,0x00c000,-40.2,1.51e-7
1664304863,C;S;V;F,11.6,0x00c000,-40.9,4.68e-6
1664304864,C;S;V;F,11.8,0x00c000,-41.0,1.04e-5
1664304865,C;S;V;F,13.0,0x00c000,-40.0,4.68e-6
1664304866,C;S;V;F,13.4,0x00c000,-39.5,1.51e-7
1664304867,,13.3,0x00c000,-39.7,
1664304868,C;S;V;F,11.2,0x00c000,-42.0,1.51e-7
1664304869,C;S;V;F,8.5,0x00c000,-44.5,3.69e-5
1664304870,C;S;V;F,,0x00c000,-44.8,7.14e-4
1664304871,C;S;V;F,6.6,0x00c000,-40.9,4.52e-3
1664304872,C;S;V;F,8.8,0x00c000,-37.6,2.49e-3
1664304873,C;S;V;F,13.4,0x00c000,,1.07e-4
1664304874,C;S;V;F,15.6,0x00c000,-36.2,0.00e-0
1664304875,C;S;V;F,16.7,0x00c000,-35.1,0.00e-0
1664304876,C;S;V;F,17.3,0x00c000,-35.1,0.00e-0
1664304877,C;S;V;F,16.9,0x00c000,-35.4,0.00e-0
1664304878,C;S;V;F,16.6,0x00c000,-35.6,0.00e-0
1664304879,C;S;V;F,16.3,0x00c000,-36.0,
1664304880,,16.0,0x00c000,-36.6,0.00e-0
1664304881,C;S;V;F,15.8,0x00c000,-36.8,0.00e-0
1664304882,C;S;V;F,,0x00c000,-36.2,0.00e-0
1664304883,C;S;V;F,16.3,0x00c000,,0.00e-0
1664304884,C;S;V;F,17.0,0x00c000,-35.5,0.00e-0
1664304885,C;S;V;F,17.6,0x00c000,-34.3,0.00e-0
1664304886,C;S;V;F,18.2,0x00c000,-33.2,0.00e-0
1664304887,C;S;V;F,18.4,0x00c000,-33.0,0.00e-0
1664304888,C;S;V;F,18.4,0x00c000,-33.1,0.00e-0
1664304889,C;S;V;F,18.0,0x00c000,-34.0,0.00e-0
1664304890,C;S;V;F,17.3,0x00c000,-34.8,0.00e-0
1664304891,C;S;V;F,16.6,0x00c000,-36.2,
1664304892,,15.5,0x00c000,-37.4,0.00e-0
1664304893,C;S;V;F,15.2,0x00c000,-37.5,0.00e-0
1664304894,C;S;V;F,16.2,0x00c000,-36.6,0.00e-0
1664304895,C;S;V;F,16.7,0x00c000,-35.6,0.00e-0
1664304896,C;S;V;F,17.1,0x00c000,-35.2,0.00e-0
1664304897,C;S;V;F,,0x00c000,-34.7,0.00e-0
1664304898,C;S;V;F,17.4,0x00c000,,0.00e-0
1664304899,C;S;V;F,17.4,0x00c000,-34.7,0.00e-0
1664304900,C;S;V;F,17.2,0x00c000,-34.8,0.00e-0
1664304901,C;S;V;F,16.7,0x00c000,-35.4,0.00e-0
1664304902,C;S;V;F,16.0,0x00c000,-36.4,0.00e-0
1664304903,C;S;V;F,14.9,0x00c000,-37.2,0.00e-0
1664304904,C;S;V;F,14.1,0x00c000,-38.3,0.00e-0
1664304905,C;S;V;F,12.9,0x00c000,-39.7,1.51e-7
1664304906,C;S;V;F,12.6,0x00c000,-40.1,4.54e-7
1664304907,C;S;V;F,12.5,0x00c000,-40.1,7.57e-7
1664304908,C;S;V;F,12.9,0x00c000,-39.2,
1664304909,,13.7,0x00c000,-38.5,7.57e-7
1664304910,C;S;V;F,14.5,0x00c000,-37.5,0.00e-0
1664304911,C;S;V;F,15.0,0x00c000,-37.0,0.00e-0
1664304912,C;S;V;F,,0x00c000,-36.6,0.00e-0
1664304913,C;S;V;F,15.5,0x00c000,,0.00e-0
1664304915,,16.1,0x00c000,-36.4,
1664304916,C;S;V;F,,0x00c000,-36.7,0.00e-0
1664304917,C;S;V;F,16.0,0x00c000,-37.1,0.00e-0
1664304918,C;S;V;F,15.9,0x00c000,,0.00e-0
1664304919,C;S;V;F,14.5,0x00c000,-37.8,0.00e-0
1664304920,C;S;V;F,13.9,0x00c000,-38.4,0.00e-0
1664304921,C;S;V;F,12.7,0x00c000,-39.6,0.00e-0
1664304922,C;S;V;F,12.0,0x00c000,-40.7,9.09e-7
1664304923,C;S;V;F,11.1,0x00c000,-41.2,4.68e-6
1664304924,C;S;V;F,11.0,0x00c000,-41.6,2.21e-5
1664304928,C;S;V;F,12.9,0x00c000,-39.6,2.72e-6
1664304929,C;S;V;F,13.8,0x00c000,-38.9,3.03e-7
1664304930,C;S;V;F,14.0,0x00c000,-38.1,0.00e-0
1664304931,C;S;V;F,14.5,0x00c000,-38.0,0.00e-0
1664304932,C;S;V;F,14.7,0x00c000,-38.0,
1664304933,,14.7,0x00c000,-38.2,0.00e-0
1664304934,C;S;V;F,14.3,0x00c000,-38.4,0.00e-0
1664304935,C;S;V;F,,0x00c000,-38.4,0.00e-0
1664304936,C;S;V;F,14.4,0x00c000,-38.4,0.00e-0
1664304937,C;S;V;F,14.2,0x00c000,,0.00e-0
1664304938,C;S;V;F,14.6,0x00c000,-38.4,0.00e-0
1664304939,C;S;V;F,14.7,0x00c000,-38.0,0.00e-0